Location: Cicognara
(44.9500°N, 10.4667°E)
Time: 22:48:08
(UTC+00:00)

SL-14 R/B - Pass Details

Date: 20 June 2021
Orbit: 517 x 554 km, 82.4° (Epoch: 23 July)

Event Time Altitude Azimuth Distance (km) Brightness Sun altitude
Exits shadow 20:41:04 15° 177° (S) 1,555 5.1 -12.6°
Maximum altitude 20:44:23 68° 97° (E) 600 3.3 -13.0°
Drops below altitude 10° 20:48:24 10° 14° (NNE) 1,833 6.6 -13.4°
Sets 20:50:34 0° 12° (NNE) 2,726 7.6 -13.6°
